Regional Weather Roundup
Issued by NWS

Home | Current Version | Previous Version | Graphics & Text | Print | Product List | Glossary On
Versions: 1 2 3 4 5 6 7 8 9 10 11 12 13 14 15 16 17 18 19 20 21 22 23 24 25 26 27 28 29 30 31 32 33 34 35 36 37 38 39 40 41 42 43 44 45 46 47 48 49 50
685
ASUS44 KJAN 020010
RWRMS

MISSISSIPPI HOURLY WEATHER ROUNDUP
NATIONAL WEATHER SERVICE JACKSON MS
700 PM CDT WED APR 01 2015

NOTE: "FAIR: INDICATES FEW OR NO CLOUDS BELOW 12,000 FEET WITH NO
SIGNIFICANT WEATHER AND/OR OBSTRUCTIONS TO VISIBILITY.

MSZ001>002-007>008-010>013-018>021-025>028-034>036-020100-
NORTHWEST MISSISSIPPI

CITY           SKY/WX    TMP DP  RH WIND       PRES   REMARKS
CLARKSDALE     FAIR      75  64  69 SE12G18   29.93S
CLEVELAND      FAIR      75  62  64 S10       29.92F
GREENWOOD      CLOUDY    74  60  61 S12       29.96S
6HR MIN TEMP:  72; 6HR MAX TEMP:  79;

GREENVILLE     PTCLDY    74  59  59 S14       29.91F
6HR MIN TEMP:  74; 6HR MAX TEMP:  81;

OLIVE BRANCH   MOCLDY    70  64  83 CALM      29.96S
OXFORD         FAIR      72  59  64 S7        29.98S
TUNICA         MOCLDY    72  63  73 SE10      29.93F
$$

MSZ003>006-009-014>017-022>024-029>033-037>039-020100-
NORTHEAST MISSISSIPPI

CITY           SKY/WX    TMP DP  RH WIND       PRES   REMARKS
COLUMBUS AFB   PTCLDY    76  61  59 SW6       29.98R
6HR MIN TEMP:  76; 6HR MAX TEMP:  82; 6HR PCP: TRACE;

CORINTH        DRIZZLE   73  61  64 CALM      29.98R
GOLDN TRIANGLE PTCLDY    75  61  60 S7        29.98S
STARKVILLE     FAIR      73  61  64 SW7       29.99S
TUPELO         PTCLDY    74  61  63 SW3       29.97R
6HR MIN TEMP:  74; 6HR MAX TEMP:  80; 6HR PCP: TRACE;

$$

MSZ040-058-020100-
CENTRAL MISSISSIPPI

CITY           SKY/WX    TMP DP  RH WIND       PRES   REMARKS
JACKSON INTL   MOCLDY    73  60  63 SE7       29.97F
6HR MIN TEMP:  73; 6HR MAX TEMP:  80; 6HR PCP: TRACE;

JACKSON HAWKNS MOCLDY    75  58  55 SE6       29.97F
6HR MIN TEMP:  75; 6HR MAX TEMP:  81;

MERIDIAN KEY   PTCLDY    73  57  57 CALM      30.01S
6HR MIN TEMP:  73; 6HR MAX TEMP:  80;

MERIDIAN NAS   MOCLDY    75  58  55 CALM      30.01S
6HR MIN TEMP:  75; 6HR MAX TEMP:  80;

RAYMOND        FAIR      77  72  83 S5        29.96S
VICKSBURG      CLOUDY    78  54  43 S6        29.95S
6HR MIN TEMP:  75; 6HR MAX TEMP:  82;

$$

MSZ059>079-020100-
SOUTH MISSISSIPPI

CITY           SKY/WX    TMP DP  RH WIND       PRES   REMARKS
BROOKHAVEN     FAIR      75  61  60 S5        30.01R
HATTIESBURG    CLOUDY    77  59  53 S13       30.02S
6HR MIN TEMP:  77; 6HR MAX TEMP:  82;

MCCOMB         CLOUDY    75  61  61 S7        30.01R
6HR MIN TEMP:  75; 6HR MAX TEMP:  81;

NATCHEZ        CLOUDY    75  61  60 S7        29.98S
6HR MIN TEMP:  75; 6HR MAX TEMP:  82;

PINE BELT      MOCLDY    75  52  43 S7        30.03R
6HR MIN TEMP:  75; 6HR MAX TEMP:  81;

$$

MSZ080>082-020100-
COASTAL MISSISSIPPI

CITY           SKY/WX    TMP DP  RH WIND       PRES   REMARKS
BAY ST LOUIS   PTCLDY    72  64  78 MISG      30.04S
BILOXI         CLOUDY    72  68  86 S9        30.04F
6HR MIN TEMP:  72; 6HR MAX TEMP:  77;

PASCAGOULA     CLOUDY    72  64  76 S6        30.06R
6HR MIN TEMP:  72; 6HR MAX TEMP:  80;

GULFPORT       CLOUDY    73  67  81 S9        30.04F
6HR MIN TEMP:  73; 6HR MAX TEMP:  78;

$$



USA.gov is the U.S. government's official web portal to all federal, state and local government web resources and services.